Tracking 34717 objects as of 14-Jul-2026
HD Live streaming from Space Station
objects crossing your sky now

HULIANWANG DIGUI-09

Track HULIANWANG DIGUI-09 now!
10-day predictions


NORAD ID: 62331
Int'l Code: 2024-240J
Perigee: 1,173.6 km
Apogee: 1,176.5 km
Inclination: 86.5 °
Period: 108.7 minutes
Semi major axis: 7546 km
RCS: Unknown
Launch date: December 16, 2024
Source: People's Republic of China (PRC)
Launch site: Wenchang Satellite Launch Center (WSC)
Your satellite tracking list
Your tracking list is empty




NASA's NSSDC Master Catalog

Two Line Element Set (TLE):
1 62331U 24240J   26195.14278800 -.00000013  00000-0 -63617-4 0  9993
2 62331  86.5019 334.1687 0001968 104.0193 256.1160 13.24409943 76205
Source of the keplerian elements: AFSPC